CW5398 Weather Reports


Display with metric or nautical units.
time (UTC)temp
F
wind
direction
speed
MPH
gust
MPH
rain 1hr
in
rain 24hr
in
rain mn
in
humidity
%
barometer
mb
20260508222015 54 293 0.0 1.0 0.00 0.00 0.00 83 1021.2
20260508221016 54 293 0.0 3.0 0.00 0.00 0.00 83 1021.2
20260508220015 54 293 0.0 3.0 0.00 0.00 0.00 83 1021.2
20260508215016 54 293 1.0 4.0 0.00 0.00 0.00 82 1021.2
20260508214020 54 293 1.0 4.0 0.00 0.00 0.00 84 1021.2
20260508213016 54 293 0.0 2.0 0.00 0.00 0.00 85 1021.2
20260508212015 54 284 0.0 0.0 0.00 0.00 0.00 84 1021.2
20260508211015 54 293 0.0 2.0 0.00 0.00 0.00 86 1021.0
20260508210015 53 293 1.0 3.0 0.00 0.00 0.00 86 1021.0
20260508205015 53 284 0.0 0.0 0.00 0.00 0.00 88 1020.8
20260508204015 52 284 0.0 0.0 0.00 0.00 0.00 89 1020.8
20260508203015 52 293 0.0 2.0 0.00 0.00 0.00 88 1020.8
20260508202015 52 284 0.0 0.0 0.00 0.00 0.00 90 1020.7
20260508201015 52 284 0.0 0.0 0.00 0.00 0.00 90 1020.6
20260508200015 52 293 0.0 1.0 0.00 0.00 0.00 92 1020.6
20260508195017 51 293 0.0 2.0 0.00 0.00 0.00 93 1020.6
20260508194017 51 284 0.0 0.0 0.00 0.00 0.00 92 1020.6
20260508193017 51 284 0.0 0.0 0.00 0.00 0.00 93 1020.6
20260508192017 51 284 0.0 0.0 0.00 0.00 0.00 93 1020.2
20260508191037 51 284 0.0 0.0 0.00 0.00 0.00 90 1020.1
20260508190017 51 293 0.0 1.0 0.00 0.00 0.00 91 1020.1
20260508185017 51 293 1.0 3.0 0.00 0.00 0.00 91 1020.0
20260508184017 51 293 1.0 4.0 0.00 0.00 0.00 89 1019.9
20260508183017 51 293 2.0 3.0 0.00 0.00 0.00 89 1019.9
20260508182017 51 293 0.0 1.0 0.00 0.00 0.00 92 1020.0
20260508181018 51 293 0.0 1.0 0.00 0.00 0.00 92 1019.6
20260508180017 51 293 1.0 5.0 0.00 0.00 0.00 92 1019.6
20260508175117 51 293 0.0 3.0 0.00 0.00 0.00 93 1019.6
20260508174017 51 284 0.0 0.0 0.00 0.00 0.00 94 1019.3
20260508173022 51 293 0.0 3.0 0.00 0.00 0.00 93 1019.3
20260508172037 51 293 0.0 1.0 0.00 0.00 0.00 94 1019.1
20260508171017 51 284 0.0 0.0 0.00 0.00 0.00 94 1019.1
20260508170017 51 293 1.0 4.0 0.00 0.00 0.00 94 1019.1
20260508165017 52 284 0.0 0.0 0.00 0.00 0.00 96 1018.6
20260508164017 52 293 0.0 3.0 0.00 0.00 0.00 95 1018.6
20260508163017 51 284 0.0 0.0 0.00 0.00 0.00 96 1018.6
20260508162037 52 293 0.0 1.0 0.00 0.00 0.00 98 1018.3
20260508161018 51 293 0.0 1.0 0.00 0.00 0.00 98 1018.3
20260508160017 51 284 0.0 0.0 0.00 0.00 0.00 99 1018.3
20260508155017 50 284 0.0 0.0 0.00 0.00 0.00 100 1018.3
20260508154017 50 284 0.0 0.0 0.00 0.00 0.00 100 1018.1
20260508153017 50 284 0.0 0.0 0.00 0.00 0.00 100 1018.1
20260508152016 50 284 0.0 0.0 0.00 0.00 0.00 100 1018.4
20260508151016 50 284 0.0 0.0 0.00 0.00 0.00 100 1018.1
20260508150021 50 293 0.0 1.0 0.00 0.00 0.00 100 1018.1
20260508145017 49 284 0.0 0.0 0.00 0.00 0.00 100 1018.1
20260508144017 49 293 0.0 3.0 0.00 0.00 0.00 100 1017.9
20260508143017 49 284 0.0 0.0 0.00 0.00 0.00 100 1017.9
20260508142036 49 284 0.0 0.0 0.00 0.00 0.00 100 1017.6
20260508141036 49 284 0.0 0.0 0.00 0.00 0.00 100 1017.6
20260508140036 49 293 0.0 3.0 0.00 0.00 0.00 100 1017.6
20260508135016 49 284 0.0 0.0 0.00 0.00 0.00 100 1017.4
20260508134016 48 284 0.0 0.0 0.00 0.00 0.00 100 1017.1
20260508133016 48 284 0.0 0.0 0.00 0.00 0.00 100 1017.1
20260508132016 48 284 0.0 0.0 0.00 0.00 0.00 100 1017.0
20260508131016 48 284 0.0 0.0 0.00 0.00 0.00 100 1016.9
20260508130157 48 293 0.0 1.0 0.00 0.00 0.00 100 1016.9
20260508125016 48 284 0.0 0.0 0.00 0.00 0.00 100 1016.9
20260508124016 48 293 0.0 1.0 0.00 0.00 0.00 100 1016.7
20260508123016 48 267 0.0 0.0 0.00 0.00 0.00 100 1016.7
20260508122016 48 267 0.0 0.0 0.00 0.00 0.00 100 1016.8
20260508121016 48 267 0.0 0.0 0.00 0.00 0.00 100 1016.8
20260508120036 48 267 0.0 0.0 0.00 0.00 0.00 100 1016.8
20260508115036 48 267 0.0 0.0 0.00 0.00 0.00 100 1016.5
20260508114016 47 267 0.0 0.0 0.00 0.00 0.00 100 1016.5
20260508113016 47 267 0.0 0.0 0.00 0.00 0.00 100 1016.5
20260508112016 47 267 0.0 0.0 0.00 0.00 0.00 100 1016.4
20260508111016 47 267 0.0 0.0 0.00 0.00 0.00 100 1016.3
20260508110016 47 267 0.0 0.0 0.00 0.00 0.00 100 1016.3
20260508105016 47 267 0.0 0.0 0.00 0.00 0.00 100 1016.1
20260508104016 46 267 0.0 0.0 0.00 0.00 0.00 100 1016.0
20260508103016 46 267 0.0 0.0 0.00 0.00 0.00 100 1016.0
20260508102016 46 267 0.0 0.0 0.00 0.00 0.00 100 1016.0
20260508101016 46 267 0.0 0.0 0.00 0.00 0.00 100 1016.0
20260508100016 46 267 0.0 0.0 0.00 0.00 0.00 100 1016.0
20260508095016 46 267 0.0 0.0 0.00 0.00 0.00 100 1016.0
20260508094016 46 267 0.0 0.0 0.00 0.00 0.00 100 1015.7
20260508093016 46 267 0.0 0.0 0.00 0.00 0.00 100 1015.7
20260508092016 46 267 0.0 0.0 0.00 0.00 0.00 100 1015.8
20260508091016 46 267 0.0 0.0 0.00 0.00 0.00 100 1015.9
20260508090015 46 267 0.0 0.0 0.00 0.00 0.00 100 1015.9
20260508085015 46 267 0.0 0.0 0.00 0.00 0.00 100 1015.9
20260508084016 46 267 0.0 0.0 0.00 0.00 0.00 100 1015.6
20260508083016 46 267 0.0 0.0 0.00 0.00 0.00 100 1015.6
20260508082016 46 267 0.0 0.0 0.00 0.00 0.00 100 1015.8
20260508081035 46 267 0.0 0.0 0.00 0.00 0.00 100 1015.9
20260508080056 46 267 0.0 0.0 0.00 0.00 0.00 100 1015.9
20260508075015 46 267 0.0 0.0 0.00 0.00 0.00 100 1015.8
20260508074015 46 267 0.0 0.0 0.00 0.00 0.00 100 1016.0
20260508073015 46 267 0.0 0.0 0.00 0.00 0.00 100 1016.0
20260508072016 46 267 0.0 0.0 0.00 0.00 0.00 100 1016.1
20260508071016 46 267 0.0 0.0 0.00 0.00 0.00 100 1016.0
20260508070015 46 267 0.0 0.0 0.00 0.00 0.00 100 1016.0
20260508065018 46 267 0.0 0.0 0.00 0.00 0.00 100 1016.4
20260508064017 46 267 0.0 0.0 0.00 0.00 0.00 100 1016.1
20260508063037 46 267 0.0 0.0 0.00 0.00 0.00 100 1016.1
20260508062017 47 267 0.0 0.0 0.00 0.00 0.00 100 1016.4
20260508061017 47 267 0.0 0.0 0.00 0.00 0.00 100 1016.4
20260508060017 47 267 0.0 0.0 0.00 0.00 0.00 100 1016.4
20260508055017 47 267 0.0 0.0 0.00 0.00 0.00 100 1016.5
20260508054017 47 267 0.0 0.0 0.00 0.00 0.00 100 1016.4
20260508053017 47 267 0.0 0.0 0.00 0.00 0.00 100 1016.4
20260508052022 47 267 0.0 0.0 0.00 0.00 0.00 100 1016.5
20260508051017 48 267 0.0 0.0 0.00 0.00 0.00 100 1016.4
20260508050017 48 267 0.0 0.0 0.00 0.00 0.00 99 1016.4
20260508045017 49 267 0.0 0.0 0.00 0.00 0.00 98 1016.4
20260508044017 49 267 0.0 0.0 0.00 0.00 0.00 98 1016.4
20260508043017 49 267 0.0 0.0 0.00 0.00 0.00 98 1016.4
20260508042017 50 267 0.0 0.0 0.00 0.00 0.00 97 1016.4
20260508041017 50 267 0.0 0.0 0.00 0.00 0.00 96 1016.5
20260508040017 51 267 0.0 0.0 0.00 0.00 0.00 94 1016.5
20260508035037 52 267 0.0 0.0 0.00 0.00 0.00 92 1016.6
20260508034037 52 267 0.0 0.0 0.00 0.00 0.00 91 1016.5
20260508033016 53 267 0.0 0.0 0.00 0.00 0.00 89 1016.5
20260508032017 54 267 0.0 0.0 0.00 0.00 0.00 87 1016.5
20260508031016 55 267 0.0 0.0 0.00 0.00 0.00 86 1016.5
20260508030016 55 267 0.0 0.0 0.00 0.00 0.00 85 1016.5
20260508025016 56 267 0.0 0.0 0.00 0.00 0.00 85 1016.7
20260508024017 56 270 0.0 1.0 0.00 0.00 0.00 85 1016.9
20260508023037 56 267 0.0 0.0 0.00 0.00 0.00 84 1016.9
20260508022016 56 270 0.0 3.0 0.00 0.00 0.00 84 1017.0
20260508021017 57 270 0.0 3.0 0.00 0.00 0.00 83 1017.0
20260508020017 58 270 2.0 11.0 0.00 0.00 0.00 81 1017.0
20260508015016 60 203 0.0 2.0 0.00 0.00 0.00 80 1017.0
20260508014017 60 203 0.0 1.0 0.00 0.00 0.00 76 1017.1
20260508013016 60 203 0.0 4.0 0.00 0.00 0.00 76 1017.1
20260508012016 60 203 0.0 3.0 0.00 0.00 0.00 77 1017.1
20260508011037 60 203 0.0 3.0 0.00 0.00 0.00 78 1017.1
20260508010017 60 203 1.0 4.0 0.00 0.00 0.00 77 1017.1
20260508005017 60 203 1.0 5.0 0.00 0.00 0.00 78 1017.4
20260508004016 59 203 0.0 2.0 0.00 0.00 0.00 81 1017.4
20260508003017 59 203 1.0 6.0 0.00 0.00 0.00 81 1017.4
20260508002016 59 203 1.0 4.0 0.00 0.00 0.00 81 1017.5
20260508001016 59 203 2.0 6.0 0.00 0.00 0.00 80 1017.5
20260508000016 60 203 2.0 5.0 0.00 0.00 0.00 80 1017.5
20260507235016 60 203 2.0 6.0 0.00 0.00 0.00 80 1017.5
20260507234016 60 203 1.0 4.0 0.00 0.00 0.00 81 1017.5
20260507233016 59 203 2.0 6.0 0.00 0.00 0.00 81 1017.5
20260507232036 60 203 2.0 5.0 0.00 0.00 0.00 81 1017.6
20260507231016 60 203 1.0 4.0 0.00 0.00 0.00 79 1017.7
20260507230016 61 203 1.0 7.0 0.00 0.00 0.00 77 1017.7
20260507225056 60 203 1.0 4.0 0.00 0.00 0.00 79 1017.9
20260507224016 60 203 1.0 4.0 0.00 0.00 0.00 80 1018.0
20260507223016 60 203 4.0 7.0 0.00 0.00 0.00 78 1018.0